Regional Weather Roundup
Issued by NWS

Home | Current Version | Previous Version | Text Only | Print | Product List | Glossary On
Versions: 1 2 3 4 5 6 7 8 9 10 11 12 13 14 15 16 17 18 19 20 21 22 23 24 25 26 27 28 29 30 31 32 33 34 35 36 37 38 39 40 41 42 43 44 45 46 47 48 49 50
000
ASUS44 KOUN 171000
RWROK

WEATHER ROUNDUP FOR OKLAHOMA
NATIONAL WEATHER SERVICE NORMAN OK
500 AM CDT TUE OCT 17 2017

NOTE: "FAIR" INDICATES FEW OR NO CLOUDS BELOW 12,000 FEET WITH NO
      SIGNIFICANT WEATHER AND/OR OBSTRUCTIONS TO VISIBILITY.

OKZ001>007-009>012-014-015-017-171100-
NORTHWEST OKLAHOMA AND THE PANHANDLE

CITY           SKY/WX    TMP DP  RH WIND       PRES   REMARKS
GAGE           CLEAR     51  34  52 S16       30.18F
GUYMON         CLOUDY    39  37  92 S3        30.13F
$$

OKZ016-021>023-033>039-044-045-171100-
SOUTHWEST OKLAHOMA

CITY           SKY/WX    TMP DP  RH WIND       PRES   REMARKS
LAWTON/REGL    CLEAR     43  42  97 CALM      30.25S
LAWTON/FT SILL CLEAR     46  42  86 CALM      30.24S
FREDERICK      CLEAR     46  41  82 CALM      30.22S
CLINTON        CLEAR     50  39  66 S12       30.23S
HOBART         CLEAR     48  41  76 S9        30.24S
$$

OKZ018>020-024>031-171100-
CENTRAL OKLAHOMA

CITY           SKY/WX    TMP DP  RH WIND       PRES   REMARKS
OKLAHOMA CITY  PTCLDY    43  40  89 S7        30.24S
OKC/WILEY POST CLEAR     48  41  76 S8        30.24S
OKC/TINKER AFB CLEAR     50  41  71 S9        30.24F
STILLWATER     CLEAR     45  40  82 S6        30.24S
GUTHRIE        CLEAR     50  41  71 S8        30.23F
$$

OKZ008-013-054>072-171100-
NORTHEAST OKLAHOMA

CITY           SKY/WX    TMP DP  RH WIND       PRES   REMARKS
TULSA          CLOUDY    49  44  83 S6        30.25F
TULSA/JONES    CLEAR     43  41  93 CALM      30.27S
PONCA CITY     CLEAR     53  40  61 S6        30.22F
BARTLESVILLE   PTCLDY    39  37  92 CALM      30.25F
MUSKOGEE       CLEAR     44  43  96 S7        30.30R
$$

OKZ032-040>043-046>053-073>077-171100-
SOUTH CENTRAL/SOUTHEAST OKLAHOMA

CITY           SKY/WX    TMP DP  RH WIND       PRES   REMARKS
MCALESTER      PTCLDY    43  41  93 CALM      30.29S
$$





USA.gov is the U.S. government's official web portal to all federal, state and local government web resources and services.